Location: Dead Woman Crossing
(43.5369°N, 106.3228°W)
Time: 02:23:25
(UTC+00:00)

deb Delta 126 - Pass Details

Date: 18 December 2022
Orbit: 1046 x 1646 km, 101.7° (Epoch: 29 January)

Event Time Altitude Azimuth Distance (km) Brightness Sun altitude
Rises 13:31:13 0° 188° (S) 4,145 ? -10.9°
Reaches altitude 10° 13:34:15 10° 198° (SSW) 3,102 ? -10.4°
Maximum altitude 13:40:22 33° 260° (W) 1,767 ? -9.3°
Drops below altitude 10° 13:46:07 10° 323° (NW) 2,894 ? -8.4°
Enters shadow 13:48:35 - 333° (NNW) 3,728 ? -8.0°
